Theta_e
316 315 316 317 318 318 318 319 319 320 321 320 319 316 316 314 313 314 313 313 313 314 314 315 316 316 318 319 318 319 315 317 315 316 315 315 314 312 312 311 307 308 306 303 303
319 317 316 317 318 318 319 319 320 321 320 320 320 316 316 316 314 313 312 312 313 314 314 315 316 318 319 319 319 316 314 317 314 314 314 315 314 313 309 306 304 303 302 303 304
319 319 318 318 319 319 319 319 320 321 320 320 319 316 316 318 316 313 313 314 314 314 315 315 315 316 317 318 317 314 313 315 315 315 315 314 313 312 308 307 306 304 302 303 304
317 318 318 318 319 319 319 319 319 319 318 318 319 317 318 318 318 314 314 314 314 315 316 315 314 314 315 315 317 315 315 316 315 315 314 313 313 309 309 308 307 304 304 303 303
314 316 317 317 318 318 318 318 317 316 315 315 318 317 317 318 314 314 314 312 313 315 315 315 313 313 314 315 315 315 315 315 315 315 314 314 312 308 305 305 304 303 302 302 301
312 313 315 316 317 316 317 317 316 315 315 315 318 318 317 319 317 313 313 313 312 312 314 315 312 313 314 316 314 315 315 314 315 315 314 311 308 309 305 303 302 302 302 301 300
310 312 313 314 315 315 315 315 315 314 314 316 318 318 319 320 317 310 311 313 313 313 314 316 314 313 314 314 315 314 313 312 313 313 313 312 308 308 307 303 302 301 301 300 299
310 310 311 312 313 314 314 314 314 313 313 316 318 317 318 318 313 309 312 313 314 313 314 316 315 313 313 314 314 313 312 313 313 312 312 310 310 306 305 303 302 300 299 298 297
310 309 310 311 312 312 313 313 313 313 314 317 317 318 319 317 314 311 311 314 314 313 316 316 315 314 313 313 311 308 313 311 310 311 311 309 308 305 304 303 301 299 298 297 296
311 309 309 309 310 311 312 312 312 314 317 315 318 317 316 317 316 316 315 315 313 314 316 316 313 309 308 311 316 313 309 308 309 310 310 309 309 304 303 301 300 299 298 296 295
310 309 308 308 309 311 312 313 313 317 318 314 315 317 317 317 317 316 315 313 314 315 315 314 312 314 313 309 310 310 309 308 308 309 309 308 310 304 304 300 298 298 297 296 295
309 308 308 308 308 310 313 316 316 314 313 314 314 314 314 315 316 314 313 313 313 314 313 311 314 312 311 310 309 309 310 309 308 308 308 307 307 306 303 301 300 297 296 295 295
309 308 308 308 308 310 315 316 317 316 312 313 315 315 316 316 315 314 312 312 313 312 313 314 314 309 309 308 308 308 310 308 308 307 304 304 304 306 302 302 298 296 297 296 295
308 307 308 308 309 312 315 315 316 316 306 309 313 315 317 313 312 313 312 313 312 314 312 310 309 308 308 308 308 308 307 307 307 306 305 303 306 304 299 299 296 296 296 295 295
307 307 308 308 312 314 314 315 315 314 306 309 315 315 314 312 312 312 312 313 313 312 312 313 306 307 307 308 307 307 305 305 305 304 303 303 302 303 298 299 297 296 296 294 294
307 308 308 308 310 313 315 315 313 309 310 312 314 312 311 311 311 312 311 311 310 307 306 309 307 306 306 307 308 306 306 304 302 300 302 302 302 300 297 299 298 297 294 294 294
305 309 309 310 311 313 315 310 306 308 308 313 314 312 312 312 311 310 310 309 313 315 313 309 307 305 307 307 307 307 303 307 306 303 308 300 300 307 301 298 298 297 293 294 293
305 308 310 310 313 312 306 309 309 306 309 313 312 311 313 311 313 310 310 311 308 310 308 312 312 306 305 306 308 306 303 308 308 307 313 299 304 304 296 294 299 297 293 293 292
311 312 310 309 313 316 306 308 312 309 309 312 313 313 313 313 314 309 307 308 310 306 313 308 309 302 302 303 304 304 302 302 302 287 295 301 300 300 293 292 291 291 292 292 292
313 313 311 310 312 317 302 312 311 309 312 312 312 313 314 313 312 309 308 307 309 306 308 310 310 303 300 301 300 302 301 302 301 306 304 306 305 307 294 292 290 290 291 292 292
311 311 311 310 313 309 309 308 310 313 313 313 313 312 312 312 310 308 310 310 307 304 305 303 308 304 300 300 304 298 300 299 300 307 308 308 313 299 297 295 291 291 291 292 292
310 311 311 312 311 307 312 308 310 311 313 311 311 311 312 311 310 310 311 311 309 304 305 303 303 305 302 300 297 301 302 302 304 305 303 306 310 301 297 295 293 292 291 292 292
311 310 310 311 311 311 309 310 310 309 310 311 311 310 310 310 311 311 311 310 307 304 303 301 303 304 308 300 296 297 296 301 299 301 306 307 310 293 293 292 292 290 292 292 291
310 310 309 307 311 309 310 312 312 311 310 310 309 309 310 310 310 311 310 305 303 305 307 304 303 307 313 311 301 298 294 296 300 304 306 305 306 305 297 291 289 291 292 292 291
311 310 309 309 308 310 310 310 310 312 310 310 310 310 310 311 310 310 309 302 300 301 302 302 307 303 308 309 303 305 307 299 299 302 305 307 307 306 305 300 291 293 291 291 290
314 312 308 306 308 309 310 310 310 308 310 311 311 309 310 311 310 309 311 304 307 298 297 297 305 303 305 304 302 304 305 305 304 304 303 303 304 304 303 296 292 289 290 289 290
315 315 313 311 307 309 309 309 309 309 310 310 310 311 310 310 310 310 309 309 308 304 298 298 301 302 309 304 302 305 305 304 305 304 303 302 303 303 300 291 289 289 290 290 289
Wind_Speed
11 13 15 16 18 18 19 21 22 24 24 25 21 7 8 13 13 9 12 11 10 9 7 7 6 5 4 5 4 1 4 1 2 3 2 2 3 5 7 11 10 8 11 16 8
12 13 14 16 17 17 18 18 20 22 23 23 20 6 4 5 8 13 11 10 10 11 10 8 9 7 2 4 2 4 3 2 1 3 3 0 4 11 7 13 11 21 18 12 6
11 13 14 15 16 17 16 17 18 20 22 22 19 6 4 1 4 7 10 9 10 11 12 10 10 4 2 3 3 1 3 2 2 4 4 4 2 4 23 2 13 19 17 10 4
10 11 13 14 15 16 16 15 16 18 20 21 16 4 4 2 1 1 7 7 7 9 9 9 10 4 3 4 2 3 2 2 6 2 5 5 6 5 2 5 18 21 15 10 5
10 11 11 13 14 15 15 16 15 17 19 19 14 4 1 1 3 3 2 5 6 6 8 10 11 5 2 4 5 1 4 3 1 3 5 6 4 8 13 19 20 17 13 8 6
10 12 13 13 14 14 15 15 16 17 18 18 12 5 4 3 5 4 3 2 5 6 9 8 5 7 1 2 1 3 6 12 10 4 7 8 5 2 15 22 20 16 12 8 6
12 12 13 15 16 15 16 16 16 17 18 18 9 6 6 6 7 4 2 1 3 6 7 6 5 4 2 3 3 5 5 6 5 6 5 12 1 8 20 25 22 18 15 12 6
14 15 15 16 17 18 18 17 17 17 18 13 8 5 4 6 8 6 3 2 4 5 6 4 6 2 1 3 2 2 2 3 3 4 2 6 9 5 27 30 24 21 18 14 10
17 17 17 17 17 19 19 19 17 15 13 7 8 4 4 7 10 10 7 5 5 3 6 3 3 2 1 3 4 5 3 4 7 9 2 6 6 6 29 29 26 25 22 16 12
18 18 18 18 18 19 20 20 13 10 4 6 4 3 6 5 7 7 7 6 4 3 3 2 2 3 4 3 3 4 5 5 7 3 4 7 13 8 28 28 28 27 22 18 13
19 18 17 17 17 18 20 19 7 3 7 12 12 11 12 13 14 13 9 6 5 2 1 2 3 6 8 6 4 3 5 7 6 6 5 10 16 13 26 22 23 28 26 21 16
19 18 17 16 15 14 13 6 4 7 11 17 22 20 19 16 6 12 8 7 5 3 0 6 4 5 2 3 4 5 6 8 9 5 3 9 10 9 19 30 36 33 30 24 19
19 17 16 15 14 12 8 6 7 9 5 7 7 7 5 8 6 10 9 6 4 4 5 5 4 6 3 3 5 4 5 6 8 4 5 8 7 18 4 22 24 28 31 26 21
20 18 17 14 11 9 7 6 7 8 4 6 4 4 6 6 3 8 9 5 2 7 4 5 1 4 5 5 7 6 3 5 4 4 3 4 9 3 6 15 13 25 31 26 21
21 19 16 13 7 7 7 6 6 2 3 5 4 6 7 6 4 5 8 5 5 6 5 8 6 6 6 7 7 8 0 4 3 5 3 6 5 5 3 8 14 22 33 26 21
21 21 17 14 14 13 10 6 1 4 7 4 5 5 4 5 4 7 5 4 2 3 1 6 1 5 6 2 1 1 3 4 3 2 2 7 9 5 6 10 8 20 29 28 23
23 21 16 15 10 11 10 6 3 5 3 5 6 5 4 6 4 6 6 5 6 1 4 2 4 1 3 2 3 3 5 4 5 2 7 5 3 16 8 7 11 22 30 31 24
23 20 17 16 14 10 11 3 7 7 7 2 3 3 6 7 4 5 4 3 5 3 3 4 7 8 4 6 7 5 6 5 6 4 15 2 8 6 4 9 21 25 32 28 23
18 18 20 17 16 14 11 6 10 9 7 9 3 4 5 4 3 5 7 6 8 10 8 7 7 2 1 1 4 4 5 2 1 2 3 5 7 6 4 3 9 21 30 27 21
19 14 21 16 17 16 3 18 8 9 6 4 12 9 9 7 7 7 8 6 5 12 4 4 6 2 2 1 0 4 4 3 1 3 6 7 10 12 7 10 8 11 23 26 21
17 9 10 22 17 13 10 9 10 16 13 7 9 7 8 8 8 7 7 4 7 6 7 6 5 2 4 8 10 1 3 3 2 5 4 4 16 7 15 17 19 17 29 30 23
15 4 14 26 12 8 15 8 8 9 28 7 4 9 11 10 8 8 13 12 20 15 10 8 5 6 13 2 2 2 10 12 5 6 7 2 16 2 9 12 24 25 30 28 22
12 15 12 31 8 13 5 7 15 8 11 9 11 9 6 8 5 11 15 11 24 13 11 9 4 2 6 2 2 6 6 10 1 2 22 8 14 1 1 7 21 24 32 26 19
14 4 13 28 25 11 14 14 13 18 22 10 8 8 5 8 13 8 5 5 14 12 13 20 7 9 17 13 5 6 9 10 17 13 20 28 36 28 13 8 7 17 26 23 20
23 11 16 7 19 20 13 8 23 16 13 29 16 20 14 13 14 15 8 1 1 6 7 9 13 9 22 20 4 15 24 13 22 27 19 39 32 30 26 13 20 36 30 26 20
23 13 13 5 13 24 28 34 27 12 12 21 24 15 25 24 22 16 23 7 10 2 8 3 8 5 15 10 8 20 27 23 25 30 27 36 39 39 33 11 15 25 30 26 21
39 36 31 20 12 15 28 34 28 22 24 31 22 20 22 28 42 45 21 15 12 14 12 9 6 4 20 4 4 14 27 26 21 25 21 22 37 31 18 8 16 26 34 29 21
Wind_Direction
11 12 11 11 14 18 19 19 17 17 17 19 18 72 74 61 58 80 65 58 50 36 21 23 13 13 26 23 42 67 60 29 334 142 159 132 112 66 116 116 77 114 120 124 134
358 2 4 5 6 8 12 14 13 11 12 15 15 45 86 50 52 60 56 54 47 37 28 29 23 28 32 4 19 78 101 207 352 136 154 127 144 150 105 100 99 107 119 140 180
348 351 352 357 358 1 4 4 5 4 4 7 13 41 82 37 21 34 54 60 48 31 22 22 11 16 32 340 355 89 167 191 112 127 163 164 129 155 136 187 179 156 145 168 172
333 340 343 344 349 353 355 356 355 353 353 355 7 30 67 77 136 82 62 61 41 27 16 7 11 12 37 341 341 347 296 224 173 179 157 163 168 84 225 152 161 163 172 173 161
315 322 329 334 337 341 346 348 351 346 341 344 352 346 229 204 165 180 135 50 34 17 4 6 26 13 7 329 332 176 316 320 247 207 133 164 199 151 133 145 156 165 173 170 143
299 307 314 320 326 329 334 338 341 341 336 334 335 317 237 233 209 204 218 265 1 355 1 7 19 1 323 300 318 314 290 291 289 272 182 139 170 141 174 162 162 176 184 192 170
296 298 303 310 316 321 324 330 333 334 327 326 319 287 249 263 204 197 193 239 326 344 350 357 353 0 310 314 312 304 326 322 249 205 208 127 326 229 188 176 175 181 183 182 175
296 297 300 304 310 316 321 324 329 326 316 309 310 269 253 225 207 207 214 274 312 321 325 329 336 11 167 295 349 5 56 349 281 177 203 158 257 236 184 180 183 180 177 172 170
294 297 300 305 310 314 319 322 328 320 305 300 291 249 249 222 223 227 245 278 295 288 303 296 341 61 77 68 5 5 245 234 310 211 136 185 263 222 185 191 188 189 183 179 172
290 295 300 305 310 314 320 326 325 304 233 316 238 264 228 227 219 236 247 254 257 273 301 306 53 54 26 72 258 252 284 274 241 265 199 249 261 190 195 198 198 196 191 188 178
284 289 294 300 307 315 324 348 350 276 219 279 260 248 259 247 265 255 233 228 194 236 23 349 61 243 250 211 198 209 236 230 254 255 223 233 246 206 201 207 209 203 195 191 188
279 285 288 292 299 309 323 347 343 310 297 271 260 260 257 259 256 218 212 195 174 200 102 5 255 226 186 225 238 232 261 265 285 240 210 269 248 227 192 210 210 200 195 191 187
271 276 279 285 289 294 287 310 323 329 286 281 245 251 231 217 222 210 200 186 166 165 201 170 256 119 171 232 257 231 213 252 241 337 290 284 248 242 219 220 213 206 199 197 194
263 266 271 275 284 257 266 292 312 336 48 265 236 214 189 189 255 196 193 193 188 194 192 231 258 186 221 232 174 276 227 256 281 355 260 348 294 258 193 223 204 193 201 195 192
256 258 261 257 234 244 263 276 304 345 347 253 190 175 185 183 151 200 191 188 193 188 132 252 178 191 218 225 165 237 188 263 264 259 349 230 255 241 142 244 211 197 200 192 194
252 257 253 251 243 244 245 246 279 54 250 246 162 184 159 197 197 163 184 186 166 153 277 248 226 190 210 139 177 32 333 299 47 99 256 233 196 221 192 218 196 203 196 192 189
251 255 250 240 236 230 223 177 40 179 279 223 207 179 187 187 203 179 177 179 190 273 269 334 222 67 162 128 17 81 56 312 334 344 237 180 232 258 234 225 196 195 187 188 188
248 250 249 235 227 214 191 70 204 222 228 63 144 106 184 160 223 166 144 234 231 116 111 212 302 176 180 198 186 177 177 168 262 251 293 350 245 252 290 302 242 191 180 182 187
239 242 245 232 217 212 201 216 195 193 202 158 84 169 227 216 203 153 200 203 213 171 187 180 265 120 241 174 159 179 187 152 192 126 7 238 277 275 81 48 112 152 173 185 192
230 240 240 235 214 206 186 228 216 203 147 149 184 178 191 204 173 180 188 204 213 190 167 215 288 209 174 163 285 167 154 69 9 288 274 263 274 248 199 207 186 183 191 194 199
219 235 221 220 204 194 220 225 223 238 210 171 202 202 201 185 194 195 215 235 203 172 160 145 179 185 120 208 183 158 214 199 200 162 228 295 283 207 192 203 192 201 197 199 202
206 232 193 190 181 219 227 193 233 213 229 250 199 200 188 182 204 210 213 204 188 157 169 200 169 202 211 237 279 244 208 186 191 223 235 218 260 169 206 197 195 203 198 200 205
208 225 203 183 215 215 236 234 237 190 203 216 230 194 195 202 248 213 242 210 182 160 172 179 213 315 312 359 331 224 211 218 358 299 248 239 266 25 181 155 198 188 196 199 203
195 217 192 204 224 225 215 230 224 221 231 206 204 183 163 222 219 256 222 221 196 205 205 158 187 181 240 238 137 218 200 203 213 239 255 243 263 261 253 203 202 196 201 201 207
196 216 199 203 220 225 224 238 224 224 211 209 240 224 208 235 225 232 225 237 272 210 178 172 236 194 247 260 194 263 260 206 218 238 237 261 261 265 266 235 204 208 202 199 201
209 208 185 207 201 207 220 233 232 221 186 216 226 206 219 230 217 231 224 178 204 163 173 193 246 154 258 244 223 259 264 254 245 251 249 254 267 266 277 241 178 186 190 190 201
221 232 219 220 202 192 222 234 235 223 236 229 225 229 231 227 229 236 231 210 208 184 184 168 184 139 256 119 359 273 252 239 247 243 233 245 246 263 261 194 178 181 188 191 202